This is the latest recevied weather packets stored in our database for station/object SV4FHR-2. If no packets are shown the sender has not sent any weather packets the latest 10 day(s).
| Time | Temp. | Humidity | Pressure | Rain* | Wind** | Luminosity | Snow |
|---|---|---|---|---|---|---|---|
| 1778093981 | 18.89° C | 63% | 1012.5 hPa | 0 mm | - | - | - |
| 1778093681 | 18.89° C | 63% | 1012.4 hPa | 0 mm | - | - | - |
| 1778093381 | 19.44° C | 63% | 1012.6 hPa | 0 mm | - | - | - |
| 1778093080 | 19.44° C | 63% | 1012.4 hPa | 0 mm | - | - | - |
| 1778092780 | 19.44° C | 63% | 1012.1 hPa | 0 mm | - | - | - |
| 1778092480 | 19.44° C | 65% | 1012 hPa | 0 mm | - | - | - |
| 1778092182 | 18.89° C | 66% | 1012.1 hPa | 0 mm | - | - | - |
| 1778091882 | 19.44° C | 64% | 1011.8 hPa | 0 mm | - | - | - |
| 1778091581 | 19.44° C | 64% | 1011.9 hPa | 0 mm | - | - | - |
| 1778091281 | 19.44° C | 65% | 1011.7 hPa | 0 mm | - | - | - |
| 1778090981 | 19.44° C | 65% | 1011.6 hPa | 0 mm | - | - | - |
| 1778090681 | 19.44° C | 65% | 1011.6 hPa | 0 mm | - | - | - |
| 1778090381 | 20° C | 65% | 1011.4 hPa | 0 mm | - | - | - |
| 1778090081 | 20° C | 65% | 1011.6 hPa | 0 mm | - | - | - |
| 1778089781 | 20° C | 64% | 1011.3 hPa | 0 mm | - | - | - |
| 1778089481 | 20.56° C | 64% | 1011.4 hPa | 0 mm | - | - | - |
| 1778089180 | 20.56° C | 64% | 1011.5 hPa | 0 mm | - | - | - |
| 1778088881 | 20.56° C | 63% | 1011.1 hPa | 0 mm | - | - | - |
| 1778088580 | 20.56° C | 62% | 1011.4 hPa | 0 mm | - | - | - |
| 1778088280 | 21.11° C | 61% | 1011.3 hPa | 0 mm | - | - | - |
| 1778087982 | 21.67° C | 59% | 1011.2 hPa | 0 mm | - | - | - |
| 1778087682 | 21.67° C | 58% | 1011.2 hPa | 0 mm | - | - | - |
| 1778087382 | 22.22° C | 58% | 1011.2 hPa | 0 mm | - | - | - |
| 1778087082 | 22.22° C | 57% | 1011.1 hPa | 0 mm | - | - | - |
| 1778086782 | 22.78° C | 55% | 1010.9 hPa | 0 mm | - | - | - |
* Rain latest hour (hover to see other rain measurements)
** Current wind speed in m/s (hover to see current wind gust speed)